Tracking 19792 objects as of 15-Jul-2019
HD Live streaming from Space Station
objects crossing your sky now

COSMOS 2292

Track COSMOS 2292 now!
10-day predictions
COSMOS 2292 is classified as:


NORAD ID: 23278
Int'l Code: 1994-061A
Perigee: 402.9 km
Apogee: 1,708.4 km
Inclination: 83.0 °
Period: 106.2 minutes
Semi major axis: 7426 km
RCS: 2.958 m2 (large)
Launch date: September 27, 1994
Source: Commonwealth of Independent States (former USSR) (CIS)
Launch site: PLESETSK MISSILE AND SPACE COMPLEX (PKMTR)
aabbcc
Your satellite tracking list
Your tracking list is empty




NASA's NSSDC Master Catalog

Two Line Element Set (TLE):
1 23278U 94061A   19196.53576715  .00000083  00000-0  59850-5 0  9990
2 23278  82.9813 320.9630 0878917 313.6541  39.4869 13.56486198213973
Source of the keplerian elements: AFSPC